C/2019 U5 ( PanSTARRS )

Japanese version
Home page
Updated on September 11, 2022

---------------------------------------------------------------------

* Profile

Discovery Date October 22, 2019
Magnitude 21.1 mag
Discoverer Pan-STARRS 1 telescope (Haleakala)

* Pictures

* Orbital Elements

Epoch 2022 Aug. 9.0 TT = JDT 2459800.5
T 2023 Mar. 29.92681 TT                                 Rudenko
q   3.6239677            (2000.0)            P               Q
z  -0.0003876      Peri.  181.51305     -0.99907753     +0.00802099
 +/-0.0000009      Node     2.63711     -0.02291016     +0.73135593
e   1.0014048      Incl.  113.52124     -0.03632102     -0.68194880
From 2936 observations 2019 Oct. 11-2022 Sept. 2, mean residual 0".4.

* Finding Charts

* Magnitudes Graph

        m1 = 3.5 + 5 log d + 11.0 log r

---------------------------------------------------------------------

The orbital elements are published on M.P.E.C. 2022-R68.
The charts are made with StellaNavigator Ver.10 (AstroArts).
The magnitudes graphs are made with Comet for Windows.

---------------------------------------------------------------------

Copyright(C) Seiichi Yoshida (comet@aerith.net). All rights reserved.